Vernal, UT

10:20 AM MST on February 23, 2018 (GMT -0700)
Vernal

Weather History for KVEL - February, 2014

Change the Weather History Date:

Saturday, February 8, 2014

  Actual Average Record
Temperature  
Mean Temperature 30 °F 23 °F  
Max Temperature 40 °F 33 °F 59 °F (1963)
Min Temperature 19 °F 13 °F -32 °F (1989)
Degree Days  
Heating Degree Days 35 42  
Month to date heating degree days 387 345  
Since 1 July heating degree days 5231 4740  
Cooling Degree Days 0 0  
Month to date cooling degree days 0 0  
Year to date cooling degree days 0 0  
Moisture  
Dew Point 25 °F    
Average Humidity 78    
Maximum Humidity 92    
Minimum Humidity 64    
Precipitation  
Precipitation 0.02 in 0.01 in 0.40 in (1959)
Month to date precipitation 0.09 0.13  
Year to date precipitation 0.32 0.63  
Sea Level Pressure  
Sea Level Pressure 29.99 in    
Wind  
Wind Speed 4 mph (SSW)    
Max Wind Speed 12 mph    
Max Gust Speed 16 mph    
Visibility 7 miles    
Events Rain , Snow    
T = Trace of Precipitation, MM = Missing Value Source: NWS Daily Summary

Daily Weather History Graph

Daily Weather History Graph

Search for Another Location

Airport or City:

Trip Planner

Search our weather history database for the weather conditions in past years. The results will help you decide how hot, cold, wet, or windy it might be!

Date:

Astronomy

Feb. 08, 2014 Rise Set
Actual Time 7:19 AM MST 5:45 PM MST
Civil Twilight 6:51 AM MST 6:13 PM MST
Nautical Twilight 6:19 AM MST 6:45 PM MST
Astronomical Twilight 5:47 AM MST 7:17 PM MST
Moon 12:41 PM MST (2/8) 2:35 AM MST (2/8)
Length of Visible Light 11h 21m
Length of Day
10h 25m
Waxing Gibbous, 69% of the Moon is Illuminated
Feb 8
Waxing Gibbous
Feb 14
Full
Feb 22
Last Quarter
Mar 1
New
Mar 8
First Quarter

Hourly Weather History & Observations

Time (MST) Temp. Windchill Dew Point Humidity Pressure Visibility Wind Dir Wind Speed Gust Speed Precip Events Conditions
12:53 AM 19.9 °F - 16.0 °F 85% 29.99 in 10.0 mi Calm Calm - N/A   Mostly Cloudy
1:53 AM 21.9 °F 15.7 °F 18.0 °F 85% 29.99 in 10.0 mi WNW 4.6 mph - N/A   Overcast
2:53 AM 25.0 °F 19.3 °F 19.9 °F 81% 29.97 in 10.0 mi WNW 4.6 mph - N/A   Overcast
3:53 AM 24.1 °F 18.2 °F 21.0 °F 88% 29.96 in 10.0 mi South 4.6 mph - N/A   Overcast
4:53 AM 24.1 °F 19.7 °F 19.0 °F 81% 29.97 in 10.0 mi ESE 3.5 mph - N/A   Overcast
5:53 AM 23.0 °F - 21.0 °F 92% 30.00 in 2.5 mi Calm Calm - 0.00 in Snow Light Snow
6:09 AM 23.0 °F - 21.0 °F 92% 29.91 in 2.0 mi Calm Calm - 0.00 in Snow Light Snow
6:12 AM 23.0 °F - 21.0 °F 92% 29.91 in 1.5 mi Calm Calm - 0.00 in Snow Light Snow
6:25 AM 23.0 °F - 21.9 °F 96% 29.92 in 2.0 mi Calm Calm - 0.01 in Snow Light Snow
6:37 AM 23.0 °F - 21.9 °F 96% 29.92 in 1.8 mi Calm Calm - 0.01 in Snow Light Snow
6:53 AM 24.1 °F - 21.9 °F 91% 30.05 in 1.8 mi Calm Calm - 0.01 in Snow Light Snow
7:03 AM 24.1 °F - 21.9 °F 91% 29.93 in 1.5 mi Calm Calm - 0.00 in Snow Light Snow
7:10 AM 24.1 °F - 21.9 °F 91% 29.93 in 1.8 mi Calm Calm - 0.00 in Snow Light Snow
7:19 AM 24.1 °F - 21.9 °F 91% 29.94 in 2.0 mi Calm Calm - 0.01 in Snow Light Snow
7:25 AM 24.1 °F - 23.0 °F 96% 29.94 in 2.0 mi Calm Calm - 0.01 in Snow Light Snow
7:31 AM 24.1 °F - 23.0 °F 96% 29.94 in 1.8 mi Calm Calm - 0.01 in Snow Light Snow
7:34 AM 24.1 °F - 23.0 °F 96% 29.94 in 2.0 mi Calm Calm - 0.01 in Snow Light Snow
7:49 AM 24.8 °F 20.5 °F 23.0 °F 93% 29.95 in 5.0 mi WNW 3.5 mph - 0.01 in   Overcast
7:53 AM 25.0 °F 20.7 °F 24.1 °F 96% 30.06 in 6.0 mi WNW 3.5 mph - 0.01 in   Overcast
8:53 AM 27.0 °F 23.0 °F 25.0 °F 92% 30.08 in 9.0 mi WNW 3.5 mph - 0.00 in   Overcast
9:53 AM 30.0 °F 26.5 °F 27.0 °F 88% 30.06 in 10.0 mi Variable 3.5 mph - N/A   Overcast
10:53 AM 33.1 °F - 28.9 °F 85% 30.08 in 10.0 mi Calm Calm - N/A   Overcast
11:53 AM 35.1 °F - 28.0 °F 76% 30.07 in 10.0 mi Calm Calm - N/A   Mostly Cloudy
12:15 PM 34.0 °F - 28.0 °F 79% 30.00 in 10.0 mi Calm Calm - N/A   Overcast
12:53 PM 36.0 °F - 28.0 °F 73% 30.06 in 10.0 mi Calm Calm - N/A   Clear
1:53 PM 37.0 °F 34.5 °F 27.0 °F 67% 30.03 in 10.0 mi South 3.5 mph - N/A   Clear
2:53 PM 37.0 °F 32.4 °F 28.0 °F 70% 30.02 in 10.0 mi SE 5.8 mph - N/A   Clear
3:53 PM 37.0 °F 33.3 °F 28.0 °F 70% 30.01 in 10.0 mi SE 4.6 mph - N/A   Clear
4:53 PM 35.1 °F 29.3 °F 28.0 °F 76% 30.03 in 10.0 mi East 6.9 mph - N/A   Clear
5:53 PM 35.1 °F 27.9 °F 27.0 °F 72% 30.04 in 10.0 mi SE 9.2 mph - N/A   Mostly Cloudy
6:53 PM 36.0 °F 29.0 °F 28.9 °F 76% 30.05 in 10.0 mi South 9.2 mph - N/A   Overcast
7:53 PM 39.0 °F 32.3 °F 30.0 °F 70% 30.01 in 10.0 mi SSW 10.4 mph - N/A   Overcast
8:53 PM 39.0 °F 35.7 °F 30.9 °F 73% 30.01 in 10.0 mi SSW 4.6 mph - N/A   Overcast
9:53 PM 37.0 °F 33.3 °F 30.0 °F 76% 30.00 in 10.0 mi NNW 4.6 mph - N/A   Overcast
10:53 PM 36.0 °F - 30.0 °F 79% 29.98 in 10.0 mi Calm Calm - 0.00 in Rain Light Rain
11:53 PM 34.0 °F - 30.9 °F 89% 29.97 in 10.0 mi Calm Calm - 0.00 in   Overcast